Date_Time,Julian_Date,Latitude,Longitude,Instrument_Depth,U,V,Speed,Direction
(yyyy-mm-dd hh:mn:ss UTC),(JD),(+ deg. North),(+ deg. East),(m),(cm/s),(cm/s),(cm/s),(deg True)
1980-07-17 16:00:00 UTC,2444438.166667,26.5000,-96.1917,0200,-51.13,16.49,53.7233,287.8751
1980-07-17 16:30:00 UTC,2444438.187500,26.5000,-96.1917,0200,-49.27,14.94,51.4853,286.8687
1980-07-17 17:00:00 UTC,2444438.208333,26.5000,-96.1917,0200,-49.49,14.68,51.6213,286.5217
1980-07-17 17:30:00 UTC,2444438.229167,26.5000,-96.1917,0200,-48.56,12.26,50.0837,284.1694
1980-07-17 18:00:00 UTC,2444438.250000,26.5000,-96.1917,0200,-47.26,12.23,48.8168,284.5088
1980-07-17 18:30:00 UTC,2444438.270833,26.5000,-96.1917,0200,-46.71,10.34,47.8408,282.4821
1980-07-17 19:00:00 UTC,2444438.291667,26.5000,-96.1917,0200,-49.24,6.43,49.6581,277.4399
1980-07-17 19:30:00 UTC,2444438.312500,26.5000,-96.1917,0200,-49.62,6.77,50.0797,277.7693
1980-07-17 20:00:00 UTC,2444438.333333,26.5000,-96.1917,0200,-48.52,7.49,49.0947,278.7755
1980-07-17 20:30:00 UTC,2444438.354167,26.5000,-96.1917,0200,-46.21,6.86,46.7164,278.4440
1980-07-17 21:00:00 UTC,2444438.375000,26.5000,-96.1917,0200,-45.70,6.51,46.1614,278.1073
1980-07-17 21:30:00 UTC,2444438.395833,26.5000,-96.1917,0200,-45.15,10.27,46.3033,282.8147
1980-07-17 22:00:00 UTC,2444438.416667,26.5000,-96.1917,0200,-45.50,11.77,46.9977,284.5034
1980-07-17 22:30:00 UTC,2444438.437500,26.5000,-96.1917,0200,-45.69,10.40,46.8587,282.8232
1980-07-17 23:00:00 UTC,2444438.458333,26.5000,-96.1917,0200,-44.13,10.32,45.3206,283.1624
1980-07-17 23:30:00 UTC,2444438.479167,26.5000,-96.1917,0200,-43.13,10.89,44.4836,284.1706
1980-07-18 00:00:00 UTC,2444438.500000,26.5000,-96.1917,0200,-39.74,8.80,40.7027,282.4861
1980-07-18 00:30:00 UTC,2444438.520833,26.5000,-96.1917,0200,-34.86,8.15,35.8000,283.1590
1980-07-18 01:00:00 UTC,2444438.541667,26.5000,-96.1917,0200,-33.40,8.22,34.3966,283.8262
1980-07-18 01:30:00 UTC,2444438.562500,26.5000,-96.1917,0200,-34.95,8.39,35.9429,283.4988
1980-07-18 02:00:00 UTC,2444438.583333,26.5000,-96.1917,0200,-33.63,7.86,34.5363,283.1550
1980-07-18 02:30:00 UTC,2444438.604167,26.5000,-96.1917,0200,-33.44,9.71,34.8212,286.1918
1980-07-18 03:00:00 UTC,2444438.625000,26.5000,-96.1917,0200,-33.98,8.79,35.0985,284.5034
1980-07-18 03:30:00 UTC,2444438.645833,26.5000,-96.1917,0200,-33.69,6.22,34.2594,280.4604
1980-07-18 04:00:00 UTC,2444438.666667,26.5000,-96.1917,0200,-33.28,9.24,34.5389,285.5170
1980-07-18 04:30:00 UTC,2444438.687500,26.5000,-96.1917,0200,-35.77,9.70,37.0619,285.1724
1980-07-18 05:00:00 UTC,2444438.708333,26.5000,-96.1917,0200,-36.74,11.85,38.6038,287.8764
1980-07-18 05:30:00 UTC,2444438.729167,26.5000,-96.1917,0200,-38.41,10.66,39.8618,285.5110
1980-07-18 06:00:00 UTC,2444438.750000,26.5000,-96.1917,0200,-39.04,13.36,41.2627,288.8916
1980-07-18 06:30:00 UTC,2444438.770833,26.5000,-96.1917,0200,-37.84,14.98,40.6972,291.5975
1980-07-18 07:00:00 UTC,2444438.791667,26.5000,-96.1917,0200,-34.30,14.76,37.3410,293.2832
1980-07-18 07:30:00 UTC,2444438.812500,26.5000,-96.1917,0200,-34.13,14.45,37.0629,292.9469
1980-07-18 08:00:00 UTC,2444438.833333,26.5000,-96.1917,0200,-34.57,16.86,38.4622,295.9988
1980-07-18 08:30:00 UTC,2444438.854167,26.5000,-96.1917,0200,-33.75,15.97,37.3377,295.3228
1980-07-18 09:00:00 UTC,2444438.875000,26.5000,-96.1917,0200,-34.72,19.01,39.5836,298.7017
1980-07-18 09:30:00 UTC,2444438.895833,26.5000,-96.1917,0200,-36.12,18.14,40.4192,296.6665
1980-07-18 10:00:00 UTC,2444438.916667,26.5000,-96.1917,0200,-36.51,17.01,40.2780,294.9808
1980-07-18 10:30:00 UTC,2444438.937500,26.5000,-96.1917,0200,-34.95,17.04,38.8827,295.9917
1980-07-18 11:00:00 UTC,2444438.958333,26.5000,-96.1917,0200,-31.77,16.20,35.6619,297.0177
1980-07-18 11:30:00 UTC,2444438.979167,26.5000,-96.1917,0200,-30.46,15.98,34.3973,297.6825
1980-07-18 12:00:00 UTC,2444439.000000,26.5000,-96.1917,0200,-27.74,13.93,31.0411,296.6641
1980-07-18 12:30:00 UTC,2444439.020833,26.5000,-96.1917,0200,-29.68,15.35,33.4144,297.3473
1980-07-18 13:00:00 UTC,2444439.041667,26.5000,-96.1917,0200,-31.35,16.69,35.5159,298.0298
1980-07-18 13:30:00 UTC,2444439.062500,26.5000,-96.1917,0200,-31.86,13.71,34.6846,293.2832
1980-07-18 14:00:00 UTC,2444439.083333,26.5000,-96.1917,0200,-31.27,15.94,35.0984,297.0104
1980-07-18 14:30:00 UTC,2444439.104167,26.5000,-96.1917,0200,-31.17,15.20,34.6786,295.9961
1980-07-18 15:00:00 UTC,2444439.125000,26.5000,-96.1917,0200,-29.47,15.46,33.2790,297.6815
1980-07-18 15:30:00 UTC,2444439.145833,26.5000,-96.1917,0200,-29.07,15.92,33.1438,298.7070
1980-07-18 16:00:00 UTC,2444439.166667,26.5000,-96.1917,0200,-27.56,15.74,31.7380,299.7314
1980-07-18 16:30:00 UTC,2444439.187500,26.5000,-96.1917,0200,-23.92,15.01,28.2394,302.1086
1980-07-18 17:00:00 UTC,2444439.208333,26.5000,-96.1917,0200,-23.07,13.72,26.8414,300.7404
1980-07-18 17:30:00 UTC,2444439.229167,26.5000,-96.1917,0200,-23.16,11.81,25.9973,297.0184
1980-07-18 18:00:00 UTC,2444439.250000,26.5000,-96.1917,0200,-22.73,12.62,25.9984,299.0396
1980-07-18 18:30:00 UTC,2444439.270833,26.5000,-96.1917,0200,-21.04,11.04,23.7605,297.6867
1980-07-18 19:00:00 UTC,2444439.291667,26.5000,-96.1917,0200,-20.90,9.74,23.0581,294.9869
1980-07-18 19:30:00 UTC,2444439.312500,26.5000,-96.1917,0200,-20.59,6.24,21.5148,286.8600
1980-07-18 20:00:00 UTC,2444439.333333,26.5000,-96.1917,0200,-21.42,4.74,21.9382,282.4778
1980-07-18 20:30:00 UTC,2444439.354167,26.5000,-96.1917,0200,-23.75,5.26,24.3255,282.4879
1980-07-18 21:00:00 UTC,2444439.375000,26.5000,-96.1917,0200,-25.04,6.48,25.8649,284.5090
1980-07-18 21:30:00 UTC,2444439.395833,26.5000,-96.1917,0200,-27.16,6.01,27.8170,282.4774
1980-07-18 22:00:00 UTC,2444439.416667,26.5000,-96.1917,0200,-29.56,6.18,30.1991,281.8085
1980-07-18 22:30:00 UTC,2444439.437500,26.5000,-96.1917,0200,-29.97,5.53,30.4759,280.4545
1980-07-18 23:00:00 UTC,2444439.458333,26.5000,-96.1917,0200,-31.52,6.40,32.1632,281.4776
1980-07-18 23:30:00 UTC,2444439.479167,26.5000,-96.1917,0200,-31.54,6.98,32.3031,282.4788
1980-07-19 00:00:00 UTC,2444439.500000,26.5000,-96.1917,0200,-32.34,8.98,33.5636,285.5186
1980-07-19 00:30:00 UTC,2444439.520833,26.5000,-96.1917,0200,-32.49,8.41,33.5608,284.5124
1980-07-19 01:00:00 UTC,2444439.541667,26.5000,-96.1917,0200,-32.47,9.01,33.6969,285.5086
1980-07-19 01:30:00 UTC,2444439.562500,26.5000,-96.1917,0200,-32.35,8.37,33.4153,284.5062
1980-07-19 02:00:00 UTC,2444439.583333,26.5000,-96.1917,0200,-30.11,5.56,30.6190,280.4622
1980-07-19 02:30:00 UTC,2444439.604167,26.5000,-96.1917,0200,-29.56,5.46,30.0600,280.4651
1980-07-19 03:00:00 UTC,2444439.625000,26.5000,-96.1917,0200,-30.26,9.57,31.7372,287.5500
1980-07-19 03:30:00 UTC,2444439.645833,26.5000,-96.1917,0200,-31.12,8.64,32.2971,285.5165
1980-07-19 04:00:00 UTC,2444439.666667,26.5000,-96.1917,0200,-28.88,7.83,29.9226,285.1695
1980-07-19 04:30:00 UTC,2444439.687500,26.5000,-96.1917,0200,-27.79,8.07,28.9380,286.1929
1980-07-19 05:00:00 UTC,2444439.708333,26.5000,-96.1917,0200,-28.20,11.94,30.6236,292.9480
1980-07-19 05:30:00 UTC,2444439.729167,26.5000,-96.1917,0200,-25.29,11.60,27.8234,294.6400
1980-07-19 06:00:00 UTC,2444439.750000,26.5000,-96.1917,0200,-23.00,10.55,25.3042,294.6407
1980-07-19 06:30:00 UTC,2444439.770833,26.5000,-96.1917,0200,-22.45,6.38,23.3390,285.8645
1980-07-19 07:00:00 UTC,2444439.791667,26.5000,-96.1917,0200,-22.80,5.61,23.4800,283.8232
1980-07-19 07:30:00 UTC,2444439.812500,26.5000,-96.1917,0200,-22.34,9.61,24.3193,293.2759
1980-07-19 08:00:00 UTC,2444439.833333,26.5000,-96.1917,0200,-21.66,11.37,24.4629,297.6964
1980-07-19 08:30:00 UTC,2444439.854167,26.5000,-96.1917,0200,-20.35,12.27,23.7629,301.0878
1980-07-19 09:00:00 UTC,2444439.875000,26.5000,-96.1917,0200,-19.15,11.54,22.3583,301.0736
1980-07-19 09:30:00 UTC,2444439.895833,26.5000,-96.1917,0200,-18.25,9.72,20.6771,298.0399
1980-07-19 10:00:00 UTC,2444439.916667,26.5000,-96.1917,0200,-17.88,6.83,19.1401,290.9064
1980-07-19 10:30:00 UTC,2444439.937500,26.5000,-96.1917,0200,-18.05,5.94,19.0023,288.2156
1980-07-19 11:00:00 UTC,2444439.958333,26.5000,-96.1917,0200,-18.55,4.11,18.9999,282.4928
1980-07-19 11:30:00 UTC,2444439.979167,26.5000,-96.1917,0200,-20.73,3.08,20.9576,278.4510
1980-07-19 12:00:00 UTC,2444440.000000,26.5000,-96.1917,0200,-23.04,0.96,23.0600,272.3860
1980-07-19 12:30:00 UTC,2444440.020833,26.5000,-96.1917,0200,-23.36,2.35,23.4779,275.7446
1980-07-19 13:00:00 UTC,2444440.041667,26.5000,-96.1917,0200,-21.96,4.19,22.3562,280.8023
1980-07-19 13:30:00 UTC,2444440.062500,26.5000,-96.1917,0200,-21.66,3.48,21.9378,279.1274
1980-07-19 14:00:00 UTC,2444440.083333,26.5000,-96.1917,0200,-19.83,0.60,19.8391,271.7331
1980-07-19 14:30:00 UTC,2444440.104167,26.5000,-96.1917,0200,-19.10,1.25,19.1409,273.7444
1980-07-19 15:00:00 UTC,2444440.125000,26.5000,-96.1917,0200,-19.16,2.16,19.2814,276.4321
1980-07-19 15:30:00 UTC,2444440.145833,26.5000,-96.1917,0200,-18.27,2.49,18.4389,277.7610
1980-07-19 16:00:00 UTC,2444440.166667,26.5000,-96.1917,0200,-19.98,2.37,20.1201,276.7647
1980-07-19 16:30:00 UTC,2444440.187500,26.5000,-96.1917,0200,-18.86,3.25,19.1380,279.7773
1980-07-19 17:00:00 UTC,2444440.208333,26.5000,-96.1917,0200,-14.21,2.97,14.5171,281.8053
1980-07-19 17:30:00 UTC,2444440.229167,26.5000,-96.1917,0200,-16.30,2.42,16.4787,278.4448
1980-07-19 18:00:00 UTC,2444440.250000,26.5000,-96.1917,0200,-15.91,4.82,16.6241,286.8544
1980-07-19 18:30:00 UTC,2444440.270833,26.5000,-96.1917,0200,-14.41,4.46,15.0844,287.1977
1980-07-19 19:00:00 UTC,2444440.291667,26.5000,-96.1917,0200,-11.92,6.99,13.8183,300.3878
1980-07-19 19:30:00 UTC,2444440.312500,26.5000,-96.1917,0200,-9.63,8.06,12.5579,309.9283
1980-07-19 20:00:00 UTC,2444440.333333,26.5000,-96.1917,0200,-9.06,9.87,13.3978,317.4501
1980-07-19 20:30:00 UTC,2444440.354167,26.5000,-96.1917,0200,-8.99,9.56,13.1230,316.7600
1980-07-19 21:00:00 UTC,2444440.375000,26.5000,-96.1917,0200,-11.88,11.62,16.6180,314.3661
1980-07-19 21:30:00 UTC,2444440.395833,26.5000,-96.1917,0200,-10.35,9.78,14.2398,313.3781
1980-07-19 22:00:00 UTC,2444440.416667,26.5000,-96.1917,0200,-10.88,10.64,15.2179,314.3611
1980-07-19 22:30:00 UTC,2444440.437500,26.5000,-96.1917,0200,-9.66,12.48,15.7818,322.2588
1980-07-19 23:00:00 UTC,2444440.458333,26.5000,-96.1917,0200,-8.73,12.64,15.3617,325.3685
1980-07-19 23:30:00 UTC,2444440.479167,26.5000,-96.1917,0200,-10.12,12.29,15.9204,320.5308
1980-07-20 00:00:00 UTC,2444440.500000,26.5000,-96.1917,0200,-9.04,13.61,16.3387,326.4072
1980-07-20 00:30:00 UTC,2444440.520833,26.5000,-96.1917,0200,-8.72,12.30,15.0774,324.6655
1980-07-20 01:00:00 UTC,2444440.541667,26.5000,-96.1917,0200,-9.00,11.92,14.9361,322.9460
1980-07-20 01:30:00 UTC,2444440.562500,26.5000,-96.1917,0200,-7.31,10.72,12.9751,325.7098
1980-07-20 02:00:00 UTC,2444440.583333,26.5000,-96.1917,0200,-5.84,8.68,10.4617,326.0669
1980-07-20 02:30:00 UTC,2444440.604167,26.5000,-96.1917,0200,-7.19,5.74,9.2002,308.6014
1980-07-20 03:00:00 UTC,2444440.625000,26.5000,-96.1917,0200,-6.99,4.33,8.2225,301.7764
1980-07-20 03:30:00 UTC,2444440.645833,26.5000,-96.1917,0200,-6.04,2.86,6.6829,295.3380
1980-07-20 04:00:00 UTC,2444440.666667,26.5000,-96.1917,0200,-7.31,3.10,7.9402,292.9807
1980-07-20 04:30:00 UTC,2444440.687500,26.5000,-96.1917,0200,-5.65,2.35,6.1192,292.5839
1980-07-20 05:00:00 UTC,2444440.708333,26.5000,-96.1917,0200,-4.74,2.63,5.4207,299.0238
1980-07-20 05:30:00 UTC,2444440.729167,26.5000,-96.1917,0200,-4.08,0.83,4.1636,281.4988
1980-07-20 06:00:00 UTC,2444440.750000,26.5000,-96.1917,0200,-1.07,1.92,2.1980,330.8694
1980-07-20 06:30:00 UTC,2444440.770833,26.5000,-96.1917,0200,-1.93,1.78,2.6255,312.6847
1980-07-20 07:00:00 UTC,2444440.791667,26.5000,-96.1917,0200,-1.50,0.09,1.5027,273.4336
1980-07-20 07:30:00 UTC,2444440.812500,26.5000,-96.1917,0200,-2.00,0.92,2.2015,294.7024
1980-07-20 08:00:00 UTC,2444440.833333,26.5000,-96.1917,0200,-4.31,1.56,4.5836,289.8977
1980-07-20 08:30:00 UTC,2444440.854167,26.5000,-96.1917,0200,-4.99,3.30,5.9825,303.4776
1980-07-20 09:00:00 UTC,2444440.875000,26.5000,-96.1917,0200,-4.78,3.82,6.1189,308.6306
1980-07-20 09:30:00 UTC,2444440.895833,26.5000,-96.1917,0200,-3.94,2.85,4.8627,305.8801
1980-07-20 10:00:00 UTC,2444440.916667,26.5000,-96.1917,0200,-1.51,-1.18,1.9164,231.9939
1980-07-20 10:30:00 UTC,2444440.937500,26.5000,-96.1917,0200,-0.45,-1.43,1.4991,197.4680
1980-07-20 11:00:00 UTC,2444440.958333,26.5000,-96.1917,0200,-0.65,-1.35,1.4983,205.7100
1980-07-20 11:30:00 UTC,2444440.979167,26.5000,-96.1917,0200,-2.00,-0.51,2.0640,255.6945
1980-07-20 12:00:00 UTC,2444441.000000,26.5000,-96.1917,0200,-4.84,-1.24,4.9963,255.6300
1980-07-20 12:30:00 UTC,2444441.020833,26.5000,-96.1917,0200,-5.03,-1.04,5.1364,258.3182
1980-07-20 13:00:00 UTC,2444441.041667,26.5000,-96.1917,0200,-4.72,-0.11,4.7213,268.6650
1980-07-20 13:30:00 UTC,2444441.062500,26.5000,-96.1917,0200,-5.14,-0.00,5.1400,270.0000
1980-07-20 14:00:00 UTC,2444441.083333,26.5000,-96.1917,0200,-5.00,0.06,5.0004,270.6875
1980-07-20 14:30:00 UTC,2444441.104167,26.5000,-96.1917,0200,-4.00,1.16,4.1648,286.1722
1980-07-20 15:00:00 UTC,2444441.125000,26.5000,-96.1917,0200,-3.10,2.33,3.8780,306.9290
1980-07-20 15:30:00 UTC,2444441.145833,26.5000,-96.1917,0200,-2.20,4.80,5.2802,335.3764
1980-07-20 16:00:00 UTC,2444441.166667,26.5000,-96.1917,0200,-2.29,5.83,6.2636,338.5553
1980-07-20 16:30:00 UTC,2444441.187500,26.5000,-96.1917,0200,-2.14,4.52,5.0010,334.6647
1980-07-20 17:00:00 UTC,2444441.208333,26.5000,-96.1917,0200,-2.36,3.25,4.0165,324.0146
1980-07-20 17:30:00 UTC,2444441.229167,26.5000,-96.1917,0200,-1.61,6.05,6.2606,345.0981
1980-07-20 18:00:00 UTC,2444441.250000,26.5000,-96.1917,0200,-2.38,5.64,6.1216,337.1209
1980-07-20 18:30:00 UTC,2444441.270833,26.5000,-96.1917,0200,-3.02,8.25,8.7854,339.8943
1980-07-20 19:00:00 UTC,2444441.291667,26.5000,-96.1917,0200,-1.25,9.96,10.0381,352.8467
1980-07-20 19:30:00 UTC,2444441.312500,26.5000,-96.1917,0200,-1.51,10.49,10.5981,351.8087
1980-07-20 20:00:00 UTC,2444441.333333,26.5000,-96.1917,0200,-2.90,10.92,11.2985,345.1274
1980-07-20 20:30:00 UTC,2444441.354167,26.5000,-96.1917,0200,-3.01,11.33,11.7230,345.1221
1980-07-20 21:00:00 UTC,2444441.375000,26.5000,-96.1917,0200,1.01,13.64,13.6773,4.2348
1980-07-20 21:30:00 UTC,2444441.395833,26.5000,-96.1917,0200,5.44,16.00,16.8995,18.7780
1980-07-20 22:00:00 UTC,2444441.416667,26.5000,-96.1917,0200,3.96,14.41,14.9442,15.3661
1980-07-20 22:30:00 UTC,2444441.437500,26.5000,-96.1917,0200,3.73,12.58,13.1213,16.5152
1980-07-20 23:00:00 UTC,2444441.458333,26.5000,-96.1917,0200,5.88,9.98,11.5834,30.5057
1980-07-20 23:30:00 UTC,2444441.479167,26.5000,-96.1917,0200,3.91,10.15,10.8771,21.0678
1980-07-21 00:00:00 UTC,2444441.500000,26.5000,-96.1917,0200,4.69,11.50,12.4196,22.1869
1980-07-21 00:30:00 UTC,2444441.520833,26.5000,-96.1917,0200,5.97,12.46,13.8164,25.6006
1980-07-21 01:00:00 UTC,2444441.541667,26.5000,-96.1917,0200,6.09,12.72,14.1027,25.5839
1980-07-21 01:30:00 UTC,2444441.562500,26.5000,-96.1917,0200,5.74,10.86,12.2836,27.8585
1980-07-21 02:00:00 UTC,2444441.583333,26.5000,-96.1917,0200,4.30,10.75,11.5781,21.8014
1980-07-21 02:30:00 UTC,2444441.604167,26.5000,-96.1917,0200,6.09,10.34,12.0002,30.4970
1980-07-21 03:00:00 UTC,2444441.625000,26.5000,-96.1917,0200,5.90,11.72,13.1213,26.7213
1980-07-21 03:30:00 UTC,2444441.645833,26.5000,-96.1917,0200,6.22,11.39,12.9777,28.6386
1980-07-21 04:00:00 UTC,2444441.666667,26.5000,-96.1917,0200,5.53,12.36,13.5407,24.1043
1980-07-21 04:30:00 UTC,2444441.687500,26.5000,-96.1917,0200,5.52,9.38,10.8837,30.4762
1980-07-21 05:00:00 UTC,2444441.708333,26.5000,-96.1917,0200,3.02,10.45,10.8776,16.1190
1980-07-21 05:30:00 UTC,2444441.729167,26.5000,-96.1917,0200,6.40,9.14,11.1579,35.0004
1980-07-21 06:00:00 UTC,2444441.750000,26.5000,-96.1917,0200,3.98,11.47,12.1409,19.1364
1980-07-21 06:30:00 UTC,2444441.770833,26.5000,-96.1917,0200,3.66,14.05,14.5189,14.6010
1980-07-21 07:00:00 UTC,2444441.791667,26.5000,-96.1917,0200,3.59,15.94,16.3393,12.6924
1980-07-21 07:30:00 UTC,2444441.812500,26.5000,-96.1917,0200,5.86,20.27,21.1001,16.1244
1980-07-21 08:00:00 UTC,2444441.833333,26.5000,-96.1917,0200,8.36,19.37,21.0971,23.3448
1980-07-21 08:30:00 UTC,2444441.854167,26.5000,-96.1917,0200,8.99,20.47,22.3571,23.7101
1980-07-21 09:00:00 UTC,2444441.875000,26.5000,-96.1917,0200,10.37,19.01,21.6545,28.6126
1980-07-21 09:30:00 UTC,2444441.895833,26.5000,-96.1917,0200,11.68,22.44,25.2977,27.4969
1980-07-21 10:00:00 UTC,2444441.916667,26.5000,-96.1917,0200,12.63,23.52,26.6966,28.2353
1980-07-21 10:30:00 UTC,2444441.937500,26.5000,-96.1917,0200,15.66,25.82,30.1978,31.2371
1980-07-21 11:00:00 UTC,2444441.958333,26.5000,-96.1917,0200,17.38,29.52,34.2563,30.4876
1980-07-21 11:30:00 UTC,2444441.979167,26.5000,-96.1917,0200,18.99,30.84,36.2178,31.6230
1980-07-21 12:00:00 UTC,2444442.000000,26.5000,-96.1917,0200,18.08,30.25,35.2413,30.8662
1980-07-21 12:30:00 UTC,2444442.020833,26.5000,-96.1917,0200,13.05,31.98,34.5402,22.1988
1980-07-21 13:00:00 UTC,2444442.041667,26.5000,-96.1917,0200,15.35,30.00,33.6990,27.0973
1980-07-21 13:30:00 UTC,2444442.062500,26.5000,-96.1917,0200,13.31,31.42,34.1229,22.9583
1980-07-21 14:00:00 UTC,2444442.083333,26.5000,-96.1917,0200,13.53,32.54,35.2408,22.5773
1980-07-21 14:30:00 UTC,2444442.104167,26.5000,-96.1917,0200,11.74,33.08,35.1015,19.5396
1980-07-21 15:00:00 UTC,2444442.125000,26.5000,-96.1917,0200,13.47,31.81,34.5444,22.9503
1980-07-21 15:30:00 UTC,2444442.145833,26.5000,-96.1917,0200,11.52,33.16,35.1041,19.1576
1980-07-21 16:00:00 UTC,2444442.166667,26.5000,-96.1917,0200,14.57,31.47,34.6792,24.8432
1980-07-21 16:30:00 UTC,2444442.187500,26.5000,-96.1917,0200,16.47,30.20,34.3991,28.6065
1980-07-21 17:00:00 UTC,2444442.208333,26.5000,-96.1917,0200,16.44,28.78,33.1446,29.7363
1980-07-21 17:30:00 UTC,2444442.229167,26.5000,-96.1917,0200,16.10,27.35,31.7369,30.4839
1980-07-21 18:00:00 UTC,2444442.250000,26.5000,-96.1917,0200,14.91,26.10,30.0586,29.7378
1980-07-21 18:30:00 UTC,2444442.270833,26.5000,-96.1917,0200,12.12,24.88,27.6751,25.9725
1980-07-21 19:00:00 UTC,2444442.291667,26.5000,-96.1917,0200,10.42,22.90,25.1592,24.4666
1980-07-21 19:30:00 UTC,2444442.312500,26.5000,-96.1917,0200,10.08,21.05,23.3390,25.5879
1980-07-21 20:00:00 UTC,2444442.333333,26.5000,-96.1917,0200,10.90,20.95,23.6159,27.4873
1980-07-21 20:30:00 UTC,2444442.354167,26.5000,-96.1917,0200,11.35,22.92,25.5763,26.3446
1980-07-21 21:00:00 UTC,2444442.375000,26.5000,-96.1917,0200,10.92,23.59,25.9949,24.8398
1980-07-21 21:30:00 UTC,2444442.395833,26.5000,-96.1917,0200,6.04,25.29,26.0013,13.4323
1980-07-21 22:00:00 UTC,2444442.416667,26.5000,-96.1917,0200,5.71,25.37,26.0046,12.6841
1980-07-21 22:30:00 UTC,2444442.437500,26.5000,-96.1917,0200,3.82,24.58,24.8751,8.8337
1980-07-21 23:00:00 UTC,2444442.458333,26.5000,-96.1917,0200,5.59,27.40,27.9644,11.5309
1980-07-21 23:30:00 UTC,2444442.479167,26.5000,-96.1917,0200,3.91,27.54,27.8162,8.0806
1980-07-22 00:00:00 UTC,2444442.500000,26.5000,-96.1917,0200,2.98,27.66,27.8201,6.1491
1980-07-22 00:30:00 UTC,2444442.520833,26.5000,-96.1917,0200,1.31,28.07,28.1006,2.6720
1980-07-22 01:00:00 UTC,2444442.541667,26.5000,-96.1917,0200,3.16,29.33,29.4997,6.1493
1980-07-22 01:30:00 UTC,2444442.562500,26.5000,-96.1917,0200,2.31,28.71,28.8028,4.6001
1980-07-22 02:00:00 UTC,2444442.583333,26.5000,-96.1917,0200,4.73,29.12,29.5016,9.2261
1980-07-22 02:30:00 UTC,2444442.604167,26.5000,-96.1917,0200,4.10,30.34,30.6158,7.6961
1980-07-22 03:00:00 UTC,2444442.625000,26.5000,-96.1917,0200,5.93,31.18,31.7389,10.7683
1980-07-22 03:30:00 UTC,2444442.645833,26.5000,-96.1917,0200,7.31,28.87,29.7811,14.2089
1980-07-22 04:00:00 UTC,2444442.666667,26.5000,-96.1917,0200,5.98,26.60,27.2639,12.6701
1980-07-22 04:30:00 UTC,2444442.687500,26.5000,-96.1917,0200,3.91,27.54,27.8162,8.0806
1980-07-22 05:00:00 UTC,2444442.708333,26.5000,-96.1917,0200,0.75,28.37,28.3799,1.5143
1980-07-22 05:30:00 UTC,2444442.729167,26.5000,-96.1917,0200,3.01,27.94,28.1017,6.1488
1980-07-22 06:00:00 UTC,2444442.750000,26.5000,-96.1917,0200,1.76,26.22,26.2790,3.8402
1980-07-22 06:30:00 UTC,2444442.770833,26.5000,-96.1917,0200,2.66,24.74,24.8826,6.1368
1980-07-22 07:00:00 UTC,2444442.791667,26.5000,-96.1917,0200,4.64,21.30,21.7995,12.2893
1980-07-22 07:30:00 UTC,2444442.812500,26.5000,-96.1917,0200,2.47,20.39,20.5391,6.9070
1980-07-22 08:00:00 UTC,2444442.833333,26.5000,-96.1917,0200,0.24,18.58,18.5815,0.7401
1980-07-22 08:30:00 UTC,2444442.854167,26.5000,-96.1917,0200,-0.13,17.74,17.7405,359.5801
1980-07-22 09:00:00 UTC,2444442.875000,26.5000,-96.1917,0200,-1.73,15.26,15.3577,353.5321
1980-07-22 09:30:00 UTC,2444442.895833,26.5000,-96.1917,0200,-3.06,13.91,14.2426,347.5934
1980-07-22 10:00:00 UTC,2444442.916667,26.5000,-96.1917,0200,-2.20,12.08,12.2787,349.6785
1980-07-22 10:30:00 UTC,2444442.937500,26.5000,-96.1917,0200,-1.91,13.26,13.3969,351.8034
1980-07-22 11:00:00 UTC,2444442.958333,26.5000,-96.1917,0200,-1.37,13.61,13.6788,354.2519
1980-07-22 11:30:00 UTC,2444442.979167,26.5000,-96.1917,0200,-3.44,12.66,13.1190,344.7985
1980-07-22 12:00:00 UTC,2444443.000000,26.5000,-96.1917,0200,-3.59,12.04,12.5638,343.3969
1980-07-22 12:30:00 UTC,2444443.020833,26.5000,-96.1917,0200,-1.86,11.86,12.0050,351.0869
1980-07-22 13:00:00 UTC,2444443.041667,26.5000,-96.1917,0200,-2.03,11.54,11.7172,350.0232
1980-07-22 13:30:00 UTC,2444443.062500,26.5000,-96.1917,0200,-1.34,13.33,13.3972,354.2596
1980-07-22 14:00:00 UTC,2444443.083333,26.5000,-96.1917,0200,-1.31,13.05,13.1156,354.2677
1980-07-22 14:30:00 UTC,2444443.104167,26.5000,-96.1917,0200,-3.05,8.83,9.3419,340.9444
1980-07-22 15:00:00 UTC,2444443.125000,26.5000,-96.1917,0200,-4.94,7.43,8.9224,326.3812
1980-07-22 15:30:00 UTC,2444443.145833,26.5000,-96.1917,0200,-5.45,10.22,11.5824,331.9304
1980-07-22 16:00:00 UTC,2444443.166667,26.5000,-96.1917,0200,-5.04,13.77,14.6634,339.8967
1980-07-22 16:30:00 UTC,2444443.187500,26.5000,-96.1917,0200,-1.62,13.58,13.6763,353.1971
1980-07-22 17:00:00 UTC,2444443.208333,26.5000,-96.1917,0200,-1.26,12.50,12.5633,354.2440
1980-07-22 17:30:00 UTC,2444443.229167,26.5000,-96.1917,0200,-2.30,10.78,11.0226,347.9561
1980-07-22 18:00:00 UTC,2444443.250000,26.5000,-96.1917,0200,-1.67,11.60,11.7196,351.8077
1980-07-22 18:30:00 UTC,2444443.270833,26.5000,-96.1917,0200,-1.09,10.83,10.8847,354.2527
1980-07-22 19:00:00 UTC,2444443.291667,26.5000,-96.1917,0200,-0.95,9.43,9.4777,354.2473
1980-07-22 19:30:00 UTC,2444443.312500,26.5000,-96.1917,0200,-0.07,9.76,9.7603,359.5891
1980-07-22 20:00:00 UTC,2444443.333333,26.5000,-96.1917,0200,-0.98,9.71,9.7593,354.2368
1980-07-22 20:30:00 UTC,2444443.354167,26.5000,-96.1917,0200,-1.03,10.27,10.3215,354.2728
1980-07-22 21:00:00 UTC,2444443.375000,26.5000,-96.1917,0200,0.35,8.77,8.7770,2.2854
1980-07-22 21:30:00 UTC,2444443.395833,26.5000,-96.1917,0200,1.67,8.19,8.3585,11.5250
1980-07-22 22:00:00 UTC,2444443.416667,26.5000,-96.1917,0200,1.03,5.61,5.7038,10.4037
1980-07-22 22:30:00 UTC,2444443.437500,26.5000,-96.1917,0200,0.02,3.88,3.8801,0.2953
1980-07-22 23:00:00 UTC,2444443.458333,26.5000,-96.1917,0200,-0.61,1.67,1.7779,339.9343
1980-07-22 23:30:00 UTC,2444443.479167,26.5000,-96.1917,0200,-0.15,1.49,1.4975,354.2513
1980-07-23 00:00:00 UTC,2444443.500000,26.5000,-96.1917,0200,-0.01,-1.50,1.5000,180.3820
1980-07-23 00:30:00 UTC,2444443.520833,26.5000,-96.1917,0200,-1.15,-0.96,1.4980,230.1455
1980-07-23 01:00:00 UTC,2444443.541667,26.5000,-96.1917,0200,-0.27,-1.48,1.5044,190.3389
1980-07-23 01:30:00 UTC,2444443.562500,26.5000,-96.1917,0200,0.68,-1.34,1.5027,153.0939
1980-07-23 02:00:00 UTC,2444443.583333,26.5000,-96.1917,0200,-1.47,-0.29,1.4983,258.8401
1980-07-23 02:30:00 UTC,2444443.604167,26.5000,-96.1917,0200,-1.35,-0.65,1.4983,244.2901
1980-07-23 03:00:00 UTC,2444443.625000,26.5000,-96.1917,0200,-2.55,-1.05,2.7577,247.6199
1980-07-23 03:30:00 UTC,2444443.645833,26.5000,-96.1917,0200,-1.54,-0.89,1.7787,239.9754
1980-07-23 04:00:00 UTC,2444443.666667,26.5000,-96.1917,0200,-2.33,-0.20,2.3386,265.0939
1980-07-23 04:30:00 UTC,2444443.687500,26.5000,-96.1917,0200,-3.16,-0.33,3.1772,264.0382